Location: Gajan
(43.0218°N, 1.1244°E)
Time: 08:18:59
(UTC+00:00)

Cosmos 1954 Rocket - Pass Details

Date: 22 April 2021
Orbit: 752 x 781 km, 74.0° (Epoch: 08 May)

Event Time Altitude Azimuth Distance (km) Brightness Sun altitude
Exits shadow 20:19:29 18° 164° (SSE) 1,778 5.4 -16.0°
Maximum altitude 20:22:52 41° 103° (ESE) 1,084 4.3 -16.5°
Drops below altitude 10° 20:27:42 10° 34° (NE) 2,283 6.5 -17.2°
Sets 20:30:10 0° 27° (NNE) 3,214 7.4 -17.6°
